Allentown, PA

9:55 PM EST on December 13, 2019 (GMT -0500)
Allentown

Weather History for KXLL - May, 2019

Change the Weather History Date:

Thursday, May 2, 2019

  Actual Average (WUND) Record (WUND)
Temperature  
Mean Temperature 64 °F -  
Max Temperature 78 °F - - (-1)
Min Temperature 50 °F - - (-1)
Degree Days  
Heating Degree Days 1    
Growing Degree Days 14 (Base 50)    
Moisture  
Dew Point 56 °F    
Average Humidity 81    
Maximum Humidity 100    
Minimum Humidity 54    
Precipitation  
Precipitation 0.00 in - - ()
Sea Level Pressure  
Sea Level Pressure 30.13 in    
Wind  
Wind Speed 2 mph (SW)    
Max Wind Speed 14 mph    
Max Gust Speed 22 mph    
Visibility 7 miles    
Events      
Averages and records for this station are not official NWS values.
T = Trace of Precipitation, MM = Missing Value Source: NWS Daily Summary

Daily Weather History Graph

Daily Weather History Graph

Search for Another Location

Airport or City:

Astronomy

May. 02, 2019 Rise Set
Actual Time 5:59 AM EDT 7:58 PM EDT
Civil Twilight 5:30 AM EDT 8:28 PM EDT
Nautical Twilight 4:54 AM EDT 9:04 PM EDT
Astronomical Twilight 4:14 AM EDT 9:44 PM EDT
Moon 5:12 AM EDT (5/2) 5:42 PM EDT (5/2)
Length of Visible Light 14h 58m
Length of Day
13h 58m
Waning Crescent, 5% of the Moon is Illuminated
May 2
Waning Crescent
May 4
New
May 11
First Quarter
May 18
Full
May 26
Last Quarter

Hourly Weather History & Observations

Time (EDT) Temp. Dew Point Humidity Pressure Visibility Wind Dir Wind Speed Gust Speed Precip Events Conditions
12:15 AM 51.8 °F 51.8 °F 100% 30.20 in 7.0 mi Calm Calm - N/A   Overcast
12:35 AM 51.8 °F 50.0 °F 94% 30.19 in 7.0 mi ENE 4.6 mph - N/A   Overcast
12:55 AM 51.8 °F 50.0 °F 94% 30.19 in 5.0 mi ENE 3.5 mph - N/A   Overcast
1:15 AM 50.0 °F 50.0 °F 100% 30.18 in 4.0 mi Calm Calm - N/A   Overcast
1:35 AM 50.0 °F 50.0 °F 100% 30.17 in 5.0 mi Calm Calm - N/A   Overcast
1:55 AM 51.8 °F 50.0 °F 94% 30.16 in 5.0 mi Calm Calm - N/A   Overcast
2:15 AM 51.8 °F 50.0 °F 94% 30.15 in 3.0 mi Calm Calm - N/A   Overcast
2:35 AM 50.0 °F 50.0 °F 100% 30.15 in 4.0 mi Calm Calm - N/A   Overcast
2:55 AM 51.8 °F 50.0 °F 94% 30.14 in 2.0 mi Calm Calm - N/A   Overcast
3:15 AM 50.0 °F 50.0 °F 100% 30.14 in 1.2 mi Calm Calm - N/A   Overcast
3:35 AM 51.8 °F 51.8 °F 100% 30.14 in 1.0 mi Calm Calm - N/A   Overcast
3:55 AM 51.8 °F 51.8 °F 100% 30.14 in 1.2 mi Calm Calm - N/A   Overcast
4:15 AM 51.8 °F 51.8 °F 100% 30.13 in 1.2 mi Calm Calm - N/A   Overcast
4:35 AM 51.8 °F 51.8 °F 100% 30.14 in 1.0 mi Calm Calm - N/A   Overcast
4:55 AM 51.8 °F 51.8 °F 100% 30.14 in 1.2 mi Calm Calm - N/A   Overcast
5:15 AM 51.8 °F 51.8 °F 100% 30.14 in 1.5 mi Calm Calm - N/A   Overcast
5:35 AM 51.8 °F 51.8 °F 100% 30.14 in 1.0 mi Calm Calm - N/A   Overcast
5:55 AM 51.8 °F 51.8 °F 100% 30.14 in 1.5 mi Calm Calm - N/A   Overcast
6:15 AM 51.8 °F 51.8 °F 100% 30.14 in 2.0 mi Calm Calm - N/A   Overcast
6:35 AM 51.8 °F 51.8 °F 100% 30.14 in 1.8 mi Calm Calm - N/A   Overcast
6:55 AM 51.8 °F 51.8 °F 100% 30.14 in 2.5 mi Calm Calm - N/A   Overcast
7:15 AM 51.8 °F 51.8 °F 100% 30.14 in 3.0 mi Calm Calm - N/A   Overcast
7:35 AM 53.6 °F 53.6 °F 100% 30.14 in 4.0 mi Calm Calm - N/A   Overcast
7:55 AM 53.6 °F 53.6 °F 100% 30.14 in 4.0 mi SW 4.6 mph - N/A   Overcast
8:15 AM 53.6 °F 53.6 °F 100% 30.14 in 4.0 mi SSW 3.5 mph - N/A   Overcast
8:35 AM 55.4 °F 53.6 °F 94% 30.14 in 4.0 mi Calm Calm - N/A   Overcast
8:55 AM 55.4 °F 55.4 °F 100% 30.16 in 4.0 mi WSW 5.8 mph - N/A   Overcast
9:15 AM 57.2 °F 55.4 °F 94% 30.15 in 4.0 mi SW 3.5 mph - N/A   Overcast
9:35 AM 57.2 °F 55.4 °F 94% 30.14 in 4.0 mi Calm Calm - N/A   Overcast
9:55 AM 59.0 °F 57.2 °F 94% 30.14 in 5.0 mi SW 3.5 mph - N/A   Overcast
10:15 AM 60.8 °F 57.2 °F 88% 30.14 in 5.0 mi SW 4.6 mph - N/A   Overcast
10:35 AM 60.8 °F 57.2 °F 88% 30.15 in 7.0 mi West 5.8 mph - N/A   Overcast
10:55 AM 62.6 °F 59.0 °F 88% 30.15 in 7.0 mi West 5.8 mph - N/A   Overcast
11:15 AM 62.6 °F 59.0 °F 88% 30.14 in 7.0 mi West 4.6 mph - N/A   Scattered Clouds
11:35 AM 64.4 °F 59.0 °F 83% 30.14 in 10.0 mi SW 5.8 mph - N/A   Clear
11:55 AM 68.0 °F 59.0 °F 73% 30.14 in 7.0 mi Calm Calm - N/A   Clear
12:15 PM 68.0 °F 60.8 °F 78% 30.14 in 10.0 mi SSW 3.5 mph - N/A   Clear
12:35 PM 69.8 °F 60.8 °F 73% 30.13 in 10.0 mi Calm Calm - N/A   Clear
12:55 PM 71.6 °F 60.8 °F 69% 30.12 in 10.0 mi Calm Calm - N/A   Clear
1:15 PM 73.4 °F 60.8 °F 65% 30.12 in 10.0 mi Calm Calm - N/A   Clear
1:35 PM 73.4 °F 60.8 °F 65% 30.10 in 10.0 mi ESE 4.6 mph - N/A   Clear
1:55 PM 75.2 °F 60.8 °F 61% 30.09 in 10.0 mi West 4.6 mph - N/A   Clear
2:15 PM 77.0 °F 60.8 °F 57% 30.09 in 10.0 mi Calm Calm - N/A   Clear
2:35 PM 77.0 °F 60.8 °F 57% 30.09 in 10.0 mi Calm Calm - N/A   Clear
2:55 PM 77.0 °F 60.8 °F 57% 30.09 in 10.0 mi SW 4.6 mph - N/A   Clear
3:15 PM 77.0 °F 62.6 °F 61% 30.09 in 10.0 mi SW 6.9 mph - N/A   Clear
3:35 PM 78.8 °F 62.6 °F 57% 30.09 in 10.0 mi SW 8.1 mph - N/A   Clear
3:55 PM 77.0 °F 62.6 °F 61% 30.08 in 10.0 mi WSW 8.1 mph - N/A   Clear
4:15 PM 78.8 °F 60.8 °F 54% 30.08 in 10.0 mi WSW 5.8 mph - N/A   Clear
4:35 PM 78.8 °F 60.8 °F 54% 30.07 in 10.0 mi WSW 4.6 mph - N/A   Clear
4:55 PM 78.8 °F 60.8 °F 54% 30.06 in 10.0 mi Calm Calm - N/A   Clear
5:15 PM 78.8 °F 62.6 °F 57% 30.06 in 10.0 mi WSW 4.6 mph - N/A   Scattered Clouds
5:35 PM 78.8 °F 60.8 °F 54% 30.06 in 10.0 mi WSW 6.9 mph - N/A   Scattered Clouds
5:55 PM 78.8 °F 60.8 °F 54% 30.06 in 10.0 mi WSW 4.6 mph - N/A   Scattered Clouds
6:15 PM 77.0 °F 60.8 °F 57% 30.07 in 10.0 mi SW 5.8 mph - N/A   Mostly Cloudy
6:35 PM 77.0 °F 60.8 °F 57% 30.07 in 10.0 mi WSW 3.5 mph - N/A   Mostly Cloudy
6:55 PM 77.0 °F 60.8 °F 57% 30.07 in 10.0 mi WSW 4.6 mph - N/A   Scattered Clouds
7:15 PM 75.2 °F 60.8 °F 61% 30.07 in 10.0 mi SW 3.5 mph - N/A   Clear
7:35 PM 77.0 °F 60.8 °F 57% 30.07 in 10.0 mi Calm Calm - N/A   Clear
7:55 PM 75.2 °F 60.8 °F 61% 30.07 in 10.0 mi Calm Calm - N/A   Scattered Clouds
8:15 PM 73.4 °F 60.8 °F 65% 30.08 in 10.0 mi Calm Calm - N/A   Scattered Clouds
8:35 PM 73.4 °F 60.8 °F 65% 30.09 in 10.0 mi Calm Calm - N/A   Mostly Cloudy
8:55 PM 69.8 °F 59.0 °F 68% 30.11 in 10.0 mi East 13.8 mph 21.9 mph N/A   Mostly Cloudy
9:15 PM 64.4 °F 55.4 °F 73% 30.13 in 10.0 mi ENE 11.5 mph - N/A   Overcast
9:35 PM 62.6 °F 55.4 °F 77% 30.14 in 10.0 mi NE 9.2 mph - N/A   Scattered Clouds
9:55 PM 60.8 °F 55.4 °F 82% 30.15 in 10.0 mi ENE 8.1 mph - N/A   Mostly Cloudy
10:15 PM 59.0 °F 55.4 °F 88% 30.16 in 10.0 mi ENE 11.5 mph 16.1 mph N/A   Mostly Cloudy
10:35 PM 57.2 °F 53.6 °F 88% 30.17 in 10.0 mi ENE 4.6 mph - N/A   Scattered Clouds
10:55 PM 55.4 °F 53.6 °F 94% 30.17 in 10.0 mi ENE 5.8 mph - N/A   Mostly Cloudy
11:15 PM 55.4 °F 53.6 °F 94% 30.18 in 10.0 mi East 9.2 mph - N/A   Overcast
11:35 PM 55.4 °F 53.6 °F 94% 30.17 in 10.0 mi East 11.5 mph - N/A   Overcast
11:55 PM 55.4 °F 51.8 °F 88% 30.17 in 10.0 mi ENE 11.5 mph - N/A   Overcast